Regional Weather Roundup
Issued by NWS

Home | Current Version | Previous Version | Graphics & Text | Print | Product List | Glossary Off
Versions: 1 2 3 4 5 6 7 8 9 10 11 12 13 14 15 16 17 18 19 20 21 22 23 24 25 26 27 28 29 30 31 32 33 34 35 36 37 38 39 40 41 42 43 44 45 46 47 48 49 50

000
ASUS43 KTOP 230359
RWRKS

WEATHER ROUNDUP FOR KANSAS
NATIONAL WEATHER SERVICE GOODLAND KS
1100 PM CDT MON SEP 22 2014

NOTE:  "FAIR" INDICATES FEW OR NO CLOUDS BELOW 12,000 FEET WITH NO
SIGNIFICANT WEATHER AND/OR OBSTRUCTIONS TO VISIBILITY.

KSZ001>006-013>018-027>032-041>047-230500-
NORTHWEST KANSAS

CITY           SKY/WX    TMP DP  RH WIND       PRES   REMARKS
GOODLAND       CLOUDY    61  57  87 N15G33    30.14R
HAYS           CLOUDY    68  45  42 S14       30.14F
HILL CITY      CLOUDY    68  47  46 S10       30.12S
RUSSELL        CLOUDY    66  47  50 SE13      30.14S
$$

KSZ061>065-074>080-084>089-230500-
SOUTHWEST KANSAS

CITY           SKY/WX    TMP DP  RH WIND       PRES   REMARKS
DODGE CITY     LGT RAIN  68  44  42 S18       30.16F
ELKHART          N/A     67  56  68 S10         N/A
GARDEN CITY    PTCLDY    67  48  50 SE16      30.13F
GREAT BEND     CLOUDY    66  45  45 SE14      30.16F
LIBERAL        PTCLDY    70  48  46 S14       30.17S
$$

KSZ066>073-081>083-090>101-230500-
SOUTHEAST KANSAS

CITY           SKY/WX    TMP DP  RH WIND       PRES   REMARKS
CHANUTE        PTCLDY    56  54  93 CALM      30.23S
COFFEYVILLE    CLEAR     57  54  89 NE5       30.22S
HUTCHINSON     MOCLDY    65  49  56 SE12      30.19S
NEWTON         PTCLDY    59  45  58 SE8       30.22F
PARSONS        CLEAR     57  55  93 CALM      30.24R
WICHITA INTL   MOCLDY    65  47  52 SE12      30.20S
WICHITA JABRA  PTCLDY    60  49  66 SE7       30.20F
WINFIELD       MOCLDY    61  52  72 E5        30.22S
$$

KSZ007>012-019>026-033>040-048>060-102>105-230500-
NORTHEAST KANSAS

CITY           SKY/WX    TMP DP  RH WIND       PRES   REMARKS
CONCORDIA      MOCLDY    62  51  67 SE9       30.17F
EMPORIA        PTCLDY    56  52  86 SE8       30.21F
LAWRENCE       MOCLDY    54  51  90 SE3       30.23R
MANHATTAN      PTCLDY    62  51  67 S3        30.20F
OLATHE IND     MOCLDY    59  52  77 SE7       30.24S
OLATHE EXE     MOCLDY    58  52  80 SE5       30.23S
SALINA         MOCLDY    65  49  56 SE12      30.18F
TOPEKA BILLARD MOCLDY    59  53  80 CALM      30.22S
TOPEKA FORBES  MOCLDY    56  51  84 SE5       30.22S
$$



USA.gov is the U.S. government's official web portal to all federal, state and local government web resources and services.